You are listening to:
LHBP Info - Budapest, Hungary

LHBP 020100Z 26009KT 9999 -SHRA SCT016 BKN034 04/01 Q1013 NOSIG

If stream doesn't start automatically press the play button
If stream stops then reload player then press play